Showing default

O3B FM10, 40348

Orbit data source: Space-Track

O3B FM10, 40348 is a payload satellite owned by O3B (JE) that was launched on Thu, 18 Dec 2014 UTC via a SOYUZ-ST-B launch vehicle from the French Guiana (FRGUI). Payloads include a variety of satellites, spacecraft, and rockets equipped with specific instruments for various scientific and technological missions. These include communications satellites like Starlink; space stations such as the ISS; scientific satellites like the Hubble; Earth observation satellites from companies like Planet Labs, Umbra, and HawkEye 360; GPS; miniature CubeSats for education and research; and military/defense satellites.

Loading next visibility...
O3B FM10 details
Identifier
40348, 2014-083A
Orbit
Active
Last TLE update1 day ago
Origin
Flag of JEO3B (JE / O3B)
ManufacturerThales Alenia
MissionOperational Commercial Communications
Bus & MotorPRISMA?, LS-400 AOCS?
Mass700 kg wet, ~500 kg dry
Launch date (UTC)
2014-12-18 (10 years ago)
Launch vehicle
SOYUZ-ST-B
Launch site
French Guiana (FRGUI)
Object type
Payload
Rocket body
Debris
Shape & HBRTrap Box + 2 Pan, 12 m
Radar Cross Section21.980 m², Large (>1 m²)

Expand to show TLE details & history

TLE from 1 day ago
0 O3B FM10
1 40348U 14083A   24338.26593214 -.00000010  00000-0  00000-0 0  9999
2 40348   0.0535 359.9174 0002666 254.8197 105.2390  5.00115715181834
Epoch: 2024-12-03T06:22Z
Definitive object data (Epoch: 2024-12-03T06:22:56.536Z)
Latitude0.00261°
Longitude-168.31359°
Altitude8,065.381 km
Speed5.254 km/s
True Right ascension23h 59m 59s
True Declination0° 00' 09"
Sunlit
Object was in daylight at TLE epoch
Visualization TLE readout
Latitude-0.00386°
Longitude12.74635°
Altitude8,063.324 km
Speed5.255 km/s
Apparent Right ascension13h 22m 13s
Apparent Declination-15° 41' 57"
Sunlit
Object is in daylight
Visualization observer readout
Local Sidereal Time06:41:08
Azimuth95.87° ESE
Elevation-17.775°
Doppler factor1
Orbital elements
Apogee altitude8,072.796 km
Perigee altitude8,065.093 km
Semi-major axis14,447.082 km
Eccentricity0.0002666
Inclination0.0535°
RAAN359.9174°
Arg. of periapsis254.8197°
True anomaly105.26847°
Mean anomaly105.239°
Eccentric anomaly105.25374°
Mean motion1.24989 °/min
BSTARUnknown
Orbital period288.02 mins
Loading maneuver chart data...
Loading historical data...
Loading historical data...
Loading historical data...
Loading historical data...
Loading historical data...
Loading historical data...
Loading historical data...
Other satellites on launch #83 in the year 2014 (2014-12-18 UTC)

O3B FM10 Visibility forecast

Observer location: undefined°, undefined

Span
Click to sort rows by Start time (UTC) header in descending order
Start Az.
Max El. time (UTC)
Max El. Az.
Max El.
End time (UTC)
End Az.
79 mins2024-12-04 12:46:58.148Z231.901° WSW2024-12-04 13:25:58.148Z180.355° SSW24.376°2024-12-04 14:05:58.148Z127.605° SE
78 mins2024-12-04 18:47:58.148Z230.839° WSW2024-12-04 19:25:58.148Z180.303° SSW24.309°2024-12-04 20:05:58.148Z127.565° SE
78 mins2024-12-05 00:47:58.148Z230.785° WSW2024-12-05 01:25:58.148Z180.259° SSW24.364°2024-12-05 02:05:58.148Z127.51° SE
79 mins2024-12-05 06:46:58.148Z231.847° WSW2024-12-05 07:25:58.148Z180.311° SSW24.43°2024-12-05 08:05:58.148Z127.55° SE
|